Time,TemperatureF,DewpointF,PressureIn,WindDirection,WindDirectionDegrees,WindSpeedMPH,WindSpeedGustMPH,Humidity,HourlyPrecipIn,Conditions,Clouds,dailyrainin,SoftwareType,DateUTC
2013-04-11 00:00:00,50.4,45.7,29.93,NE,45,0.0,0.0,84,0.01,,,0.00,WUHU216HW,2013-04-11 04:00:00,
2013-04-11 00:05:00,50.4,45.7,29.92,NE,45,0.0,0.0,84,0.01,,,0.00,WUHU216HW,2013-04-11 04:05:00,
2013-04-11 00:10:00,50.4,45.7,29.90,NE,45,0.0,0.0,84,0.01,,,0.00,WUHU216HW,2013-04-11 04:10:00,
2013-04-11 00:15:00,50.4,45.7,29.89,NE,45,0.0,0.0,84,0.02,,,0.01,WUHU216HW,2013-04-11 04:15:00,
2013-04-11 00:20:00,50.2,45.8,29.90,NW,315,0.4,1.8,85,0.02,,,0.01,WUHU216HW,2013-04-11 04:20:00,
2013-04-11 00:25:00,50.0,45.6,29.91,NNW,338,0.0,1.8,85,0.02,,,0.01,WUHU216HW,2013-04-11 04:25:00,
2013-04-11 00:30:00,50.0,45.6,29.91,NNW,338,0.0,0.4,85,0.02,,,0.01,WUHU216HW,2013-04-11 04:30:00,
2013-04-11 00:35:00,50.0,45.9,29.91,NNW,338,0.0,0.0,86,0.02,,,0.01,WUHU216HW,2013-04-11 04:35:00,
2013-04-11 00:40:00,50.0,45.9,29.91,North,0,0.0,0.0,86,0.02,,,0.01,WUHU216HW,2013-04-11 04:40:00,
2013-04-11 00:45:00,50.0,45.9,29.91,North,0,0.0,0.0,86,0.02,,,0.01,WUHU216HW,2013-04-11 04:45:00,
2013-04-11 00:50:00,50.0,45.9,29.92,NNE,23,0.0,0.9,86,0.02,,,0.01,WUHU216HW,2013-04-11 04:50:00,
2013-04-11 00:55:00,49.9,45.8,29.92,NNE,23,0.0,0.9,86,0.01,,,0.01,WUHU216HW,2013-04-11 04:55:00,
2013-04-11 01:00:00,49.9,45.8,29.92,NNE,23,0.0,0.7,86,0.01,,,0.01,WUHU216HW,2013-04-11 05:00:00,
2013-04-11 01:05:00,49.7,45.6,29.91,NNE,23,1.6,1.6,86,0.01,,,0.01,WUHU216HW,2013-04-11 05:05:00,
2013-04-11 01:10:00,49.7,45.6,29.91,NE,45,0.2,1.8,86,0.01,,,0.01,WUHU216HW,2013-04-11 05:10:00,
2013-04-11 01:15:00,49.7,45.6,29.90,North,0,0.0,1.8,86,0.01,,,0.02,WUHU216HW,2013-04-11 05:15:00,
2013-04-11 01:20:00,49.7,45.6,29.90,ENE,68,0.0,1.1,86,0.01,,,0.02,WUHU216HW,2013-04-11 05:20:00,
2013-04-11 01:25:00,49.7,45.6,29.90,NE,45,0.0,1.1,86,0.02,,,0.03,WUHU216HW,2013-04-11 05:25:00,
2013-04-11 01:30:00,49.7,45.6,29.90,NNE,23,1.1,1.1,86,0.02,,,0.03,WUHU216HW,2013-04-11 05:30:00,
2013-04-11 01:35:00,49.5,45.1,29.90,NNE,23,0.4,1.1,85,0.02,,,0.03,WUHU216HW,2013-04-11 05:35:00,
2013-04-11 01:40:00,49.5,45.1,29.90,NE,45,0.4,1.1,85,0.02,,,0.03,WUHU216HW,2013-04-11 05:40:00,
2013-04-11 01:45:00,49.5,45.1,29.90,NE,45,0.0,1.1,85,0.02,,,0.03,WUHU216HW,2013-04-11 05:45:00,
2013-04-11 01:50:00,49.5,45.1,29.89,NE,45,0.7,1.6,85,0.02,,,0.03,WUHU216HW,2013-04-11 05:50:00,
2013-04-11 01:55:00,49.5,45.1,29.89,North,0,0.0,1.6,85,0.03,,,0.04,WUHU216HW,2013-04-11 05:55:00,
2013-04-11 02:00:00,49.3,44.9,29.89,North,0,0.0,0.7,85,0.03,,,0.04,WUHU216HW,2013-04-11 06:00:00,
2013-04-11 02:05:00,49.3,44.9,29.89,North,0,0.0,0.9,85,0.03,,,0.04,WUHU216HW,2013-04-11 06:05:00,
2013-04-11 02:10:00,49.3,45.3,29.88,NE,45,0.0,0.9,86,0.03,,,0.04,WUHU216HW,2013-04-11 06:10:00,
2013-04-11 02:15:00,49.1,45.1,29.88,NE,45,0.0,0.0,86,0.02,,,0.04,WUHU216HW,2013-04-11 06:15:00,
2013-04-11 02:20:00,49.1,45.1,29.88,NE,45,0.0,0.0,86,0.01,,,0.04,WUHU216HW,2013-04-11 06:20:00,
2013-04-11 02:25:00,49.0,44.9,29.88,NNE,23,0.4,1.6,86,0.01,,,0.04,WUHU216HW,2013-04-11 06:25:00,
2013-04-11 02:30:00,49.0,44.9,29.88,NNE,23,0.0,1.6,86,0.01,,,0.04,WUHU216HW,2013-04-11 06:30:00,
2013-04-11 02:35:00,49.0,44.9,29.87,NNE,23,0.4,0.4,86,0.01,,,0.04,WUHU216HW,2013-04-11 06:35:00,
2013-04-11 02:40:00,48.8,44.7,29.87,NNE,23,0.0,1.1,86,0.01,,,0.04,WUHU216HW,2013-04-11 06:40:00,
2013-04-11 02:45:00,48.8,44.7,29.87,NNE,23,0.9,1.1,86,0.01,,,0.04,WUHU216HW,2013-04-11 06:45:00,
2013-04-11 02:50:00,48.6,44.6,29.86,NE,45,0.4,0.9,86,0.01,,,0.04,WUHU216HW,2013-04-11 06:50:00,
2013-04-11 02:55:00,48.6,44.6,29.86,NNE,23,1.1,1.1,86,0.00,,,0.04,WUHU216HW,2013-04-11 06:55:00,
2013-04-11 03:00:00,48.6,44.6,29.86,NNE,23,0.0,1.1,86,0.00,,,0.04,WUHU216HW,2013-04-11 07:00:00,
2013-04-11 03:05:00,48.6,44.6,29.88,NNE,23,0.7,1.1,86,0.00,,,0.04,WUHU216HW,2013-04-11 07:05:00,
2013-04-11 03:10:00,48.6,44.6,29.88,ENE,68,0.0,0.9,86,0.00,,,0.04,WUHU216HW,2013-04-11 07:10:00,
2013-04-11 03:15:00,48.6,44.6,29.88,NE,45,0.0,0.7,86,0.00,,,0.04,WUHU216HW,2013-04-11 07:15:00,
2013-04-11 03:20:00,48.6,44.6,29.88,NE,45,0.2,0.9,86,0.00,,,0.04,WUHU216HW,2013-04-11 07:20:00,
2013-04-11 21:29:00,44.3,30.9,30.15,ENE,68,0.0,0.0,59,0.00,,,0.04,WUHU216HW,2013-04-12 01:29:00,
2013-04-11 21:34:00,44.3,30.9,30.15,ENE,68,0.0,0.0,59,0.00,,,0.04,WUHU216HW,2013-04-12 01:34:00,
2013-04-11 21:59:00,43.9,31.0,30.16,East,90,0.0,0.0,60,0.00,,,0.07,WUHU216HW,2013-04-12 01:59:00,
2013-04-11 22:04:00,43.9,31.0,30.16,East,90,0.0,0.0,60,0.00,,,0.07,WUHU216HW,2013-04-12 02:04:00,
2013-04-11 22:29:00,43.7,31.6,30.16,North,0,0.0,0.0,62,0.00,,,0.07,WUHU216HW,2013-04-12 02:29:00,
2013-04-11 22:34:00,43.7,31.6,30.16,North,0,0.0,0.0,62,0.00,,,0.07,WUHU216HW,2013-04-12 02:34:00,
2013-04-11 22:59:00,43.6,31.8,30.17,NNE,23,0.7,0.7,63,0.00,,,0.07,WUHU216HW,2013-04-12 02:59:00,
2013-04-11 23:04:00,43.6,31.8,30.17,NNE,23,0.7,0.7,63,0.00,,,0.07,WUHU216HW,2013-04-12 03:04:00,
2013-04-11 23:29:00,43.2,32.2,30.17,ENE,68,0.2,0.2,65,0.00,,,0.07,WUHU216HW,2013-04-12 03:29:00,
2013-04-11 23:34:00,43.2,32.2,30.17,ENE,68,0.2,0.2,65,0.00,,,0.07,WUHU216HW,2013-04-12 03:34:00,
2013-04-11 23:59:00,42.8,32.7,30.18,NE,45,0.0,0.0,67,0.00,,,0.00,WUHU216HW,2013-04-12 03:59:00,